Regional Weather Roundup
Issued by NWS Cleveland, OH

Home | Current Version | Previous Version | Graphics & Text | Print | Product List | Glossary On
Versions: 1 2 3 4 5 6 7 8 9 10 11 12 13 14 15 16 17 18 19 20 21 22 23 24 25 26 27 28 29 30 31 32 33 34 35 36 37 38 39 40 41 42 43 44 45 46 47 48 49 50
000
ASUS41 KCLE 030202
RWRCLE
OHIO REGIONAL WEATHER ROUNDUP
NATIONAL WEATHER SERVICE CLEVELAND, OH
1000 PM EDT SUN AUG 02 2015

NOTE: "FAIR" INDICATES FEW OR NO CLOUDS BELOW 12,000 FEET WITH NO
SIGNIFICANT WEATHER AND/OR OBSTRUCTIONS TO VISIBILITY.

OHZ001>008-015>018-024>027-034-035-043-044-030300-
   NORTHWEST OHIO

CITY           SKY/WX    TMP DP  RH WIND       PRES   REMARKS
DEFIANCE       PTCLDY    82  65  56 S18G26    29.74F
FINDLAY        CLEAR     78  61  55 S15       29.78F
TOLEDO EXPRESS PTCLDY    80  64  58 SW17G28   29.72F
TOLEDO EXEC    PTCLDY    81  63  54 S15G26    29.74F
LIMA           CLEAR     76  62  62 S10       29.83S
$$

OHZ009>014-019>023-028>033-038-089-030300-
   NORTHEAST OHIO

CITY           SKY/WX    TMP DP  RH WIND       PRES   REMARKS
CLE-HOPKINS    PTCLDY    81  60  48 S17G24    29.80F
CLE-LAKEFRONT  PTCLDY    83  59  44 S18G31    29.76F
CUY CO. ARPT   PTCLDY    82  63  51 S16       29.79F
LORAIN-ELYRIA  PTCLDY    78  59  51 SW15G23   29.79F
ASHTABULA      PTCLDY    78  62  57 S15G23    29.79F
AKRON-CANTON   PTCLDY    77  62  59 SW17      29.86F
WOOSTER        CLEAR     75  62  64 SW10G16   29.86S
MANSFIELD      CLEAR     76  61  59 S16       29.86R
YOUNGSTOWN     PTCLDY    77  63  61 S10       29.85F
$$

OHZ042-051>053-060>062-070>072-077>081-030300-
  SOUTHWEST OHIO

CITY           SKY/WX    TMP DP  RH WIND       PRES   REMARKS
CINC-COVINGTON PTCLDY    75  61  61 S6        29.90R
CINC-LUNKEN    CLEAR     73  64  73 CALM      29.89R
HAMILTON       CLEAR     71  63  75 S3        29.89R
DAYTON         PTCLDY    77  61  57 S12       29.88S
WRIGHT-PAT AFB NOT AVBL
DAYTON GENERAL CLEAR     75  60  59 S5        29.89R
WILMINGTON     CLEAR     70  62  76 S6        29.90R
$$

OHZ036-037-039>041-045>050-054>059-063>069-073>076-082>088-030300-
  CENTRAL AND SOUTHEAST OHIO

CITY           SKY/WX    TMP DP  RH WIND       PRES   REMARKS
COLUMBUS       PTCLDY    78  61  55 S9        29.88R
OSU AIRPORT    CLEAR     77  62  59 S9        29.88R
BOLTON FIELD   NOT AVBL
RICKENBACK AFB CLEAR     74  62  66 S9        29.88S
NEWARK         CLEAR     76  62  62 S7        29.89R
MARION         CLEAR     76  61  59 S14       29.85S
LANCASTER      CLEAR     73  62  68 SE5       29.91R
ZANESVILLE     CLEAR     73  62  68 S6        29.91R
NEW PHILLY     CLEAR     75  63  66 S7        29.89R
$$


USA.gov is the U.S. government's official web portal to all federal, state and local government web resources and services.